This is the latest recevied weather packets stored in our database for station/object KD7ECD. If no packets are shown the sender has not sent any weather packets the latest 10 day(s).
| Time | Temp. | Humidity | Pressure | Rain* | Wind** | Luminosity | Snow |
|---|---|---|---|---|---|---|---|
| 1777843381 | 17.78° C | 64% | 1014.6 hPa | 0 mm | - | 585 W/m² | - |
| 1777842781 | 17.22° C | 66% | 1014.5 hPa | 0 mm | - | 531 W/m² | - |
| 1777842179 | 17.22° C | 64% | 1014.9 hPa | 0 mm | - | 588 W/m² | - |
| 1777841576 | 16.67° C | 67% | 1014.6 hPa | 0 mm | - | 385 W/m² | - |
| 1777840977 | 17.22° C | 66% | 1014.6 hPa | 0 mm | - | 560 W/m² | - |
| 1777840371 | 17.22° C | 66% | 1014.7 hPa | 0 mm | - | 920 W/m² | - |
| 1777839766 | 17.78° C | 65% | 1014.7 hPa | 0 mm | - | 937 W/m² | - |
| 1777839167 | 17.22° C | 67% | 1014.8 hPa | 0 mm | - | 843 W/m² | - |
| 1777838565 | 17.22° C | 65% | 1014.9 hPa | 0 mm | - | 919 W/m² | - |
| 1777837965 | 16.67° C | 68% | 1015 hPa | 0 mm | - | 1039 W/m² | - |
| 1777837364 | 16.11° C | 70% | 1015.1 hPa | 0 mm | - | 972 W/m² | - |
| 1777836763 | 16.11° C | 69% | 1015.1 hPa | 0 mm | - | 592 W/m² | - |
| 1777836159 | 16.11° C | 71% | 1015 hPa | 0 mm | - | 941 W/m² | - |
| 1777835554 | 16.11° C | 70% | 1015.2 hPa | 0 mm | - | 993 W/m² | - |
| 1777834953 | 15° C | 74% | 1015.1 hPa | 0 mm | - | 363 W/m² | - |
| 1777834352 | 15.56° C | 73% | 1015 hPa | 0 mm | - | 993 W/m² | - |
| 1777833749 | 15.56° C | 72% | 1015.4 hPa | 0 mm | - | 845 W/m² | - |
| 1777833149 | 15.56° C | 73% | 1015.1 hPa | 0 mm | - | 468 W/m² | - |
| 1777832545 | 15.56° C | 70% | 1015 hPa | 0 mm | - | 689 W/m² | - |
| 1777831944 | 15.56° C | 70% | 1015 hPa | 0 mm | - | 769 W/m² | - |
| 1777831339 | 15.56° C | 72% | 1015.1 hPa | 0 mm | - | 1024 W/m² | - |
| 1777830739 | 14.44° C | 75% | 1015.1 hPa | 0 mm | - | 447 W/m² | - |
| 1777830138 | 14.44° C | 75% | 1015.2 hPa | 0 mm | - | 387 W/m² | - |
| 1777829535 | 14.44° C | 73% | 1015 hPa | 0 mm | - | 370 W/m² | - |
| 1777828935 | 15° C | 73% | 1015.2 hPa | 0 mm | - | 698 W/m² | - |
* Rain latest hour (hover to see other rain measurements)
** Current wind speed in m/s (hover to see current wind gust speed)